Preview of NWS' New Version of Forecast
This preview is not operational and should not be used for support decisions.

Regional Weather Roundup (RWR)

Issued by National Weather Service (NWS)

                            
000
ASUS45 KABQ 260910
RWRNM 
NEW MEXICO REGIONAL WEATHER ROUNDUP
NATIONAL WEATHER SERVICE ALBUQUERQUE NM
300 AM MDT SUN MAY 26 2019

NOTE: "FAIR" MEANS FEW OR NO CLOUDS BELOW 12,000 FEET AGL WITH NO
       SIGNIFICANT WEATHER OR OBSTRUCTIONS TO VISION.

      THIS PRODUCT IS RELEASED AS TWO VERSIONS.  ONE VERSION NEAR
      THE TOP OF THE HOUR CONTAINING PRELIMINARY DATA FROM ALBUQUERQUE
      AND OTHER STATIONS.  A FINAL VERSION WITH ADDITIONAL DATA IS 
      ISSUED ABOUT 10 MINUTES AFTER THE HOUR.
 
NMZ501-503-504-510>518-261000-
NORTHWEST PLATEAU/NORTHCENTRAL MOUNTAINS
  
CITY           SKY/WX    TMP DP  RH WIND       PRES   REMARKS
FARMINGTON     FAIR      48  31  51 E12       29.96F                  
LOS ALAMOS       N/A     62   8  12 CALM      30.11S                  
SANTA FE       FAIR      49  17  28 N5        30.06R                  
TAOS           FAIR      41  19  41 N6        30.12S                  
ANGEL FIRE       N/A     29  26  86 CALM      30.20S                  

$$
NMZ402-403-502-505>509-261000-
WESTCENTRAL MOUNTAINS/SOUTHWEST MOUNTAINS
  
CITY           SKY/WX    TMP DP  RH WIND       PRES   REMARKS
GALLUP         FAIR      43  22  43 NE3       30.03S                  
GRANTS         FAIR      39  12  33 CALM      30.07S                  
SILVER CITY    FAIR      62  23  22 W13G18    30.00F                  

$$
NMZ407-409-411-412-261000-
SOUTHERN DESERTS
  
CITY           SKY/WX    TMP DP  RH WIND       PRES   REMARKS
DEMING         FAIR      58  24  27 CALM      29.96R                  
LAS CRUCES     FAIR      57  20  23 W7        29.96S                  
HOLLOMAN AFB   MOCLDY    66  28  23 CALM      29.94F                  
ALAMOGORDO     FAIR      64  25  22 CALM      29.94S                  
T OR C         FAIR      63  21  20 SW3       29.94F                  

$$
NMZ519>523-261000-
CENTRAL VALLEYS/CENTRAL HIGHLANDS
  
CITY           SKY/WX    TMP DP  RH WIND       PRES   REMARKS
ALBUQUERQUE    FAIR      58  21  24 E7        30.00R                  
DOUBLE EAGLE   FAIR      42  13  31 CALM      30.03R                  
MORIARTY ARPT  MOCLDY    43  26  52 W5        30.08S                  
CLINES CORNERS FAIR      52  22  30 SW9       30.11F                  
BELEN          NOT AVBL                                               
SOCORRO        FAIR      58  19  22 SW5       29.97R                  

$$
NMZ524>526-539-540-261000-
SOUTHCENTRAL MOUNTAINS
  
CITY           SKY/WX    TMP DP  RH WIND       PRES   REMARKS
RUIDOSO        FAIR      57  27  30 W5        30.12F                  

$$
NMZ527>531-261000-
NORTHEAST HIGHLANDS/NORTHEAST PLAINS
  
CITY           SKY/WX    TMP DP  RH WIND       PRES   REMARKS
LAS VEGAS      FAIR      54  17  23 W8        30.08F                  
RATON          FAIR      45  39  79 NE6       30.02F                  
CLAYTON        CLOUDY    60  60 100 S6        29.99F FOG              

$$
NMZ532>537-261000-
EASTCENTRAL PLAINS
  
CITY           SKY/WX    TMP DP  RH WIND       PRES   REMARKS
SANTA ROSA     FAIR      67  51  57 S5        29.97F                  
TUCUMCARI      FAIR      66  57  72 W5        29.93R                  
CANNON AFB     FAIR      64  59  86 CALM      30.00S                  
CLOVIS AIRPORT FAIR      61  58  90 S6        30.00S                  

$$
NMZ028-029-538-261000-
SOUTHEAST PLAINS
  
CITY           SKY/WX    TMP DP  RH WIND       PRES   REMARKS
ROSWELL        FAIR      69  61  75 E5        29.91F                  
ARTESIA        FAIR      70  64  83 SE7       29.91S                  
CARLSBAD       FAIR      70  62  76 S7        29.88S                  
HOBBS          FAIR      70  63  78 S14G21    29.95S                  


$$